Вернуться в каталог

TITAN 3C TRANSTAGE DEB

LostHEO
NORAD 36980·DEBRIS·🇺🇸 United States

Запущен Dec 21, 1965 с Cape Canaveral Space Force Station

Loading…

Ближайшие Пролёты (ближайшие 24 часа)

TLE

УстаревшееSource: Space-Track

Эпоха: Jun 22, 2026, 04:51 UTC

1 36980U 65108DL  26173.20244544  .00000004  00000-0  24592-3 0  9999
2 36980  26.7252 193.1510 6761462   5.4412   9.1636  2.70791478 20518

Отслеживайте TITAN 3C TRANSTAGE DEB в реальном времени с AllMySat

Download on the App Store